sat.trackr.live / text

‹ back to catalog

STARLINK-5972

NORAD 56362 · 2023-058AX

PAYLOAD ACTIVE UNKNOWN

§ Identity

Operator
Country
US
Launch date
2023-04-27
Launch site
AFWTR
Launch vehicle
Mass (kg)
RCS (m²)

Purposes: comms

External: N2YO · Heavens-Above · Gunter

§ Orbital elements

Epoch: 2026-05-24T23:07:38.546112Z

Period
95.64 min
Inclination
97.4489°
Eccentricity
0.0002054
Mean motion
15.05654990 rev/d
Perigee alt
548.1 km
Apogee alt
550.9 km
Semi-major
6,927.6 km
B*
1.6978e-5
RAAN
146.0358°
Arg perigee
76.4274°
Mean anomaly
283.7181°
Rev number
16,967

§ Raw data

STARLINK-59721 56362U 23058AX  26144.96364058  .00000186  00000+0  16978-4 0  99972 56362  97.4489 146.0358 0002054  76.4274 283.7181 15.05654990169676

JSON: /api/v1/satellites/56362 · /tle

For live sub-satellite position, see the globe view (requires WebGL).

§ Visibility from observer

Set your observer location to see the next 7 days of passes ≥ 10°. The values pass through the URL so the page stays shareable.

No JS? Fill the form by hand. The geolocation button needs JavaScript.